www.pogodaiklimat.ru

Погода и климат >> Архив погоды >> Малайзия >> Kuantan


ПОГОДА в Kuantan

  • Прогноз погоды в Kuantan
  • Монитор погоды в Kuantan
  • Климат города

АРХИВ ПОГОДЫ в Kuantan

Время (UTC), дата Ветер
(напр.,м/с)
 
Видим.   Явления Облачность Т
(С)
Тd
(С)
f
(%)
Тe
(С)
Тes
(С)
Комфортность P
(гПа)
Po
(гПа)
Тmin
(С)
Tmax
(С)
R
(мм)
R24
(мм)
S
(см)
18 22.04 штиль 0 12 км мгла 8/3 720 м
[Sc Ac trans Ci sp]
+24.4 +23.2 93 +33 +33 очень
душно
1010.4 1008.6
21 22.04 штиль 0 11 км мгла 8/3 720 м
[Cu hum Ac trans Ci fib]
+23.6 +22.8 95 +31 +31 очень
душно
1009.1 1007.3
00 23.04 СЗ 1 15 км мгла 8/1 750 м
[Sc Ac trans Ci sp]
+24.2 +23.3 95 +32 +33 очень
душно
1010.8 1009.0 +23.3 0.2
03 23.04 Ю 3 18 км мгла 8/1 600 м
[Cu hum Ac lent Ci sp]
+31.2 +25.3 71 +45 +52 опасность
перегрева
1012.0 1010.3
06 23.04 Ю 3 18 км мгла 8/4 500 м
[Cb cap Ac trans Ci sp]
+33.8 +26.4 65 +50 +58 опасность
перегрева
1009.5 1007.8
09 23.04 В 3 12 км гроза без осадков 8/4 480 м
[Cb cap Ac trans Ci sp]
+30.5 +27.0 82 +48 +50 опасность
перегрева
1007.9 1006.2
12 23.04 СЗ 2 12 км гроза, ливневой дождь 8/4 500 м
[Cb cap Ac trans Ci sp]
+26.1 +23.9 88 +36 +36 очень
душно
1009.5 1007.7 +34.3
15 23.04 штиль 0 12 км мгла {гроза, дождь} 8/3 750 м
[Sc Ac trans Ci sp]
+25.6 +24.4 93 +36 +36 очень
душно
1011.7 1009.9
18 23.04 СЗ 2 12 км зарница {гроза, дождь} 8/4 500 м
[Cb cap Ac trans Ci sp]
+25.0 +24.2 95 +34 +34 очень
душно
1010.8 1009.0
21 23.04 штиль 0 10 км слабый дождь 8/4 750 м
[Sc Ac trans Ci sp]
+25.0 +24.1 95 +34 +34 очень
душно
1010.0 1008.2
00 24.04 СЗ 1 16 км мгла 8/1 600 м
[Cu hum Ac trans Ci sp]
+25.1 +24.3 95 +35 +36 очень
душно
1011.3 1009.5 +24.2
03 24.04 СЗ 1 18 км мгла 5/4 570 м
[Cu med, cong Ac trans Ci sp]
+31.3 +26.7 77 +49 +59 опасность
перегрева
1012.1 1010.4
06 24.04 СВ 3 16 км мгла 8/5 480 м
[Cb cap Ac trans Ci sp]
+32.0 +26.9 74 +49 +55 опасность
перегрева
1009.7 1008.0
09 24.04 Ю 2 14 км гроза без осадков 8/4 480 м
[Cb cap Ac trans Ci sp]
+27.0 +24.7 87 +38 +41 очень
душно
1008.2 1006.4
12 24.04 З 1 12 км мгла {гроза} 8/3 720 м
[Sc Ac lent Cs]
+26.9 +25.8 94 +40 +40 очень
душно
1009.7 1007.9 +33.1
15 24.04 штиль 0 12 км мгла 8/3 720 м
[Sc Ac trans Ci sp]
+26.1 +25.1 94 +37 +37 очень
душно
1011.8 1010.0
18 24.04 ЮЗ 2 9000 м дымка 8/3 240 м
[Sc Ac trans Ci sp]
+25.3 +24.7 96 +36 +36 очень
душно
1010.7 1008.9
21 24.04 З 2 7000 м дымка 8/3 90 м
[St Ac trans Ci sp]
+25.0 +24.5 97 +35 +35 очень
душно
1009.7 1007.9
00 25.04 СЗ 1 4500 м дымка 8/3 210 м
[Sc Ac trans Ci fib]
+25.1 +24.6 97 +35 +36 очень
душно
1010.9 1009.1 +24.7
03 25.04 С 1 19 км мгла 8/3 600 м
[Cu hum Ac trans Ci fib]
+31.0 +26.5 77 +47 +56 опасность
перегрева
1011.7 1010.0
06 25.04 В 2 19 км мгла 8/4 500 м
[Cu Sc Ac trans Ci fib]
+32.7 +27.0 72 +51 +59 опасность
перегрева
1009.3 1007.6
09 25.04 В 3 8000 м осадки на расстоянии 8/4 500 м
[Cb cap Ac lent Ci sp]
+30.6 +26.5 79 +47 +49 опасность
перегрева
1007.2 1005.5
12 25.04 ЮЗ 2 12 км в посл. час гроза 8/4 720 м
[Sc Ac trans Ci sp]
+27.8 +25.8 89 +41 +41 опасность
перегрева
1009.6 1007.8 +34.0
15 25.04 З 1 10 км гроза без осадков {дождь} 8/5 500 м
[Cb cap Ac trans Ci sp]
+25.3 +24.7 96 +36 +36 очень
душно
1011.4 1009.6
18 25.04 ЮВ 1 10 км гроза без осадков {дождь} 8/5 480 м
[Cb cap Ac trans Ci sp]
+25.2 +24.4 95 +35 +35 очень
душно
1010.7 1008.9
21 25.04 штиль 0 9000 м дымка 8/4 270 м
[Sc Ac lent Ci sp]
+25.3 +24.5 95 +35 +35 очень
душно
1009.3 1007.5
00 26.04 штиль 0 18 км мгла {гроза} 8/3 750 м
[Sc Ac trans Ci sp]
+25.8 +24.8 94 +37 +37 очень
душно
1010.5 1008.7 +24.8
03 26.04 ЮЗ 1 20 км мгла 8/4 600 м
[Cu med, cong Ac trans Ci sp]
+30.1 +26.1 79 +45 +53 опасность
перегрева
1011.5 1009.8
06 26.04 СВ 3 20 км мгла 8/4 570 м
[Cu med, cong Ac trans Ci sp]
+31.0 +26.2 76 +47 +54 опасность
перегрева
1009.3 1007.6
09 26.04 СВ 3 18 км мгла 9/4 500 м
[Cb cap Ac trans Ci sp]
+32.1 +26.5 72 +49 +50 опасность
перегрева
1007.3 1005.6
12 26.04 В 1 12 км мгла 8/3 500 м
[Sc Ac trans Ci fib]
+28.6 +25.4 83 +42 +42 опасность
перегрева
1009.0 1007.3 +32.9
15 26.04 Ю 1 12 км мгла 8/1 720 м
[Sc Ac trans Ci fib]
+26.0 +24.0 89 +36 +36 очень
душно
1012.0 1010.2
18 26.04 штиль 0 11 км мгла 8/1 720 м
[Sc Ac trans Ci fib]
+25.1 +24.2 95 +35 +35 очень
душно
1010.6 1008.8
21 26.04 штиль 0 9000 м дымка 8/3 240 м
[St Ac lent Ci sp]
+24.6 +23.9 96 +34 +34 очень
душно
1009.6 1007.8
00 27.04 штиль 0 12 км мгла 9/1 750 м
[Sc Ac lent Ci sp]
+24.7 +23.8 95 +34 +35 очень
душно
1010.7 1008.9 +24.0
03 27.04 ЮЗ 2 15 км мгла 9/3 570 м
[Cu med, cong Ac trans Ci sp]
+31.3 +25.6 72 +46 +53 опасность
перегрева
1011.5 1009.8
06 27.04 В 2 18 км мгла 9/4 570 м
[Cu med, cong Ac trans Ci sp]
+33.3 +27.0 70 +52 +59 опасность
перегрева
1009.1 1007.4
09 27.04 СВ 2 16 км мгла 9/4 500 м
[Cb cap Ac trans Ci sp]
+31.9 +26.3 72 +48 +50 опасность
перегрева
1007.2 1005.5
12 27.04 СЗ 1 15 км мгла 9/3 750 м
[Sc Ac trans Ci sp]
+28.7 +25.2 81 +42 +42 опасность
перегрева
1008.4 1006.7 +33.5
15 27.04 З 2 12 км зарница 9/4 500 м
[Cb cap Ac trans Ci sp]
+26.8 +25.0 90 +39 +39 очень
душно
1011.2 1009.4
18 27.04 С 1 12 км мгла 9/3 750 м
[Sc Ac trans Ci sp]
+26.0 +25.0 94 +37 +37 очень
душно
1011.0 1009.2
21 27.04 штиль 0 9000 м мгла 9/4 180 м
[St Ac lent Ci sp]
+25.5 +24.6 95 +36 +36 очень
душно
1009.8 1008.0
00 28.04 СЗ 1 8000 м гроза без осадков 9/4 240 м
[Cb cap Ac trans Ci sp]
+26.2 +25.2 94 +38 +38 очень
душно
1011.2 1009.4 +24.7
03 28.04 В 1 16 км мгла 8/4 540 м
[Cu med, cong Ac trans Ci sp]
+31.0 +26.4 77 +47 +55 опасность
перегрева
1011.5 1009.8
06 28.04 С 1 12 км слабый ливневой дождь 9/5 480 м
[Cb cap Ac trans Ci sp]
+31.5 +26.2 74 +48 +55 опасность
перегрева
1009.9 1008.2 1
09 28.04 СВ 3 12 км гроза без осадков 8/4 480 м
[Cb cap Ac trans Ci sp]
+32.4 +26.1 69 +48 +50 опасность
перегрева
1007.5 1005.8
12 28.04 штиль 0 14 км зарница {гроза, ливн. осадки} 9/3 480 м
[Cb cap Ac lent Ci sp]
+26.9 +24.3 86 +38 +38 очень
душно
1009.3 1007.5 +33.4 0.2
15 28.04 штиль 0 12 км мгла 9/3 720 м
[Sc Ac trans Ci sp]
+26.3 +24.1 88 +37 +37 очень
душно
1011.5 1009.7
18 28.04 штиль 0 10 км мгла 9/3 720 м
[Sc Ac trans Ci sp]
+24.8 +24.0 95 +34 +34 очень
душно
1010.5 1008.7
21 28.04 штиль 0 8000 м дымка 8/4 60 м
[St Ac lent Ci sp]
+24.2 +23.5 96 +33 +33 очень
душно
1009.9 1008.1
00 29.04 штиль 0 14 км мгла 8/1 600 м
[Cu hum Ac trans Ci fib]
+24.6 +23.7 95 +33 +34 очень
душно
1011.3 1009.5 +23.9 2
03 29.04 В 2 17 км мгла 8/3 600 м
[Cu hum Ac trans Ci fib]
+30.9 +25.8 74 +46 +53 опасность
перегрева
1012.2 1010.5
06 29.04 В 2 18 км мгла 8/5 540 м
[Cu hum Ac trans Ci fib]
+32.7 +26.3 69 +49 +56 опасность
перегрева
1010.2 1008.5
09 29.04 В 3 14 км мгла 6/1 600 м
[Cu hum Ac trans Ci fib]
+32.3 +26.4 71 +49 +52 опасность
перегрева
1008.2 1006.5
12 29.04 штиль 0 14 км мгла 9/1 720 м
[Sc Ac trans Ci sp]
+29.6 +26.3 82 +45 +45 опасность
перегрева
1010.0 1008.3 +33.9
15 29.04 З 1 12 км зарница 8/4 500 м
[Cb cap Ac trans Ci sp]
+27.4 +25.7 90 +40 +40 очень
душно
1011.8 1010.0

 

Местоположение метеостанции Kuantan (Малайзия): широта 3.78 долгота 103.21 высота над уровнем моря 16 м.

В архиве по умолчанию представлена погода в Kuantan за последнюю неделю. Архивные данные за месяц целиком и за предыдущие месяцы, начиная с января 2011 года, Вы можете получить, выбрав интересующий диапазон дат из раскрывающегося списка и нажав кнопку "Ввод!".

Внимание! Время в таблицах - всемирное. Для получения местного времени необходимо прибавить поправку, которая в Kuantan равна 7 ч.

Смотрите также архив погоды в соседних городах и на ближайших метеорологических станциях:

Погода в Kuala Trengganu (Малайзия) (178 км)
Погода в Mersing (Малайзия) (198 км)
Погода в Kuala Lumpur (Малайзия) (198 км)
Погода в Malacca (Малайзия) (199 км)
Погода в Kuala Lumpur Int Airport (Малайзия) (205 км)
Погода в Cameron Highlands (Малайзия) (218 км)
Погода в Johore Bharu / Senai (Малайзия) (245 км)
Погода в Ipoh (Малайзия) (250 км)
Погода в Singapore (Сингапур) (281 км)
Погода в Sitiawan (Малайзия) (283 км)

Пояснения к столбцам:

Ветер - указаны скорость ветра в м/с - средняя за 10 мин, порывы в срок и между сроками (в фигурных скобках) и направление, откуда дует ветер: С - северный, СВ - северо-восточный, В - восточный, ЮВ - юго-восточный, Ю - южный, ЮЗ - юго-западный, З - западный, СЗ - северо-западный.
Видимость - горизонтальная дальность видимости в метрах или километрах. При видимости от 1 до 10 км при отсутствии осадков обычно наблюдается дымка, при ухудшении видимости до 1 км и менее - туман. В сухую погоду видимость может ухудшаться дымом, пылью или мглою.
Явления - указаны атмосферные явления, наблюдавшиеся в срок или в последний час перед сроком; фигурными скобками обозначены явления, наблюдавшиеся между сроками (за 1-3 часа до срока); квадратными скобками обозначены град или гололедные отложения с указанием их диаметра в мм.
Облачность - указаны через наклонную черту общая и нижняя облачность в баллах и высота нижней границы облаков в метрах; квадратными скобками обозначены формы облаков: Ci - перистые, Cs - перисто-слоистые, Cc - перисто-кучевые, Ac - высококучевые, As - высокослоистые, Sc - слоисто-кучевые, Ns - слоисто-дождевые, Cu - кучевые, Cb - кучево-дождевые. Подробнее классификацию облаков см. в Атласе облаков (PDF).
T - Температура воздуха - температура, измеренная на высоте 2 м над землей.
Td - Температура точки росы - температура, при понижении до которой содержащийся в воздухе водяной пар достигнет насыщения.
f - Относительная влажность воздуха - влажноcть воздуха, измеренная на высоте 2 м над землей.
Te - Эффективная температура - температура, которую ощущает одетый по сезону человек в тени. Характеристика душности погоды. При расчете учитывается влияние влажности воздуха и скорости ветра на теплоощущения человека.
Tes - Эффективная температура на солнце - температура, которую ощущает человек, с поправкой на солнечный нагрев. Характеристика знойности погоды. Зависит от высоты солнца над горизонтом, облачности и скорости ветра. Ночью, в пасмурную погоду, а также при ветре 12 м/с и более поправка равна нулю.
P - Атмосферное давление - приведенное к уровню моря атмосферное давление.
Po - Атмосферное давление - измеренное на уровне метеостанции атмосферное давление.
Tmin - Минимальная температура - минимум температуры воздуха на высоте 2 м над землей.
Tmax - Максимальная температура - максимум температуры воздуха на высоте 2 м над землей.
R - Количество осадков - Количество выпавших осадков за период времени, мм. При наведении курсора мыши на число - период времени, за который выпало указанное количество осадков.
R24 - Количество осадков - Количество выпавших осадков за 24 часа, мм.
S - Снежный покров - Высота снежного покрова, см. При наведении курсора мыши на число - состояние снежного покрова и степень покрытия местности в баллах.